Corona, CA

5:44 PM PST on February 27, 2017 (GMT -0800)
Corona Municipal

Weather History for KAJO - October, 2012

Change the Weather History Date:

Thursday, October 11, 2012

  Actual Average (KCNO) Record (KCNO)
Temperature  
Mean Temperature 58 °F -  
Max Temperature 70 °F 80 °F 100 °F (2015)
Min Temperature 48 °F 48 °F 45 °F (2006)
Degree Days  
Heating Degree Days 7    
Growing Degree Days 8 (Base 50)    
Moisture  
Dew Point 52 °F    
Average Humidity 81    
Maximum Humidity 100    
Minimum Humidity 47    
Precipitation  
Precipitation 0.00 in - - ()
Sea Level Pressure  
Sea Level Pressure 29.93 in    
Wind  
Wind Speed - (North)    
Max Wind Speed -    
Max Gust Speed -    
Visibility 8 miles    
Events Rain , Thunderstorm    
Averages and records for this station are not official NWS values.
T = Trace of Precipitation, MM = Missing Value Source: NWS Daily Summary

Daily Weather History Graph

Daily Weather History Graph

Search for Another Location

Airport or City:

Trip Planner

Search our weather history database for the weather conditions in past years. The results will help you decide how hot, cold, wet, or windy it might be!

Date:

Astronomy

Oct. 11, 2012 Rise Set
Actual Time 6:52 AM PDT 6:20 PM PDT
Civil Twilight 6:27 AM PDT 6:45 PM PDT
Nautical Twilight 5:58 AM PDT 7:14 PM PDT
Astronomical Twilight 5:29 AM PDT 7:43 PM PDT
Moon 2:46 AM PDT (10/11) 3:50 PM PDT (10/11)
Length of Visible Light 12h 18m
Length of Day
11h 27m
Waning Crescent, 17% of the Moon is Illuminated
Oct 11
Waning Crescent
Oct 15
New
Oct 21
First Quarter
Oct 29
Full
Nov 6
Last Quarter

Hourly Weather History & Observations

Time (PDT) Temp. Dew Point Humidity Pressure Visibility Wind Dir Wind Speed Gust Speed Precip Events Conditions
12:56 AM 59.9 °F 52.9 °F 78% 29.92 in 10.0 mi North - - N/A   Mostly Cloudy
1:56 AM 59.9 °F 52.9 °F 78% 29.92 in 10.0 mi North - - N/A   Mostly Cloudy
2:56 AM 59.9 °F 52.9 °F 78% 29.90 in 10.0 mi North - - N/A   Mostly Cloudy
3:56 AM 55.9 °F 50.0 °F 80% 29.89 in 10.0 mi North - - N/A   Clear
5:56 AM 50.9 °F 47.8 °F 89% 29.91 in 10.0 mi North - - N/A   Scattered Clouds
6:56 AM 48.9 °F 46.9 °F 93% 29.91 in 10.0 mi North - - N/A   Clear
7:56 AM 55.9 °F 50.9 °F 83% 29.92 in 10.0 mi North - - N/A   Partly Cloudy
8:56 AM 63.0 °F 50.0 °F 63% 29.93 in 10.0 mi North - - N/A   Clear
9:56 AM 61.9 °F 54.0 °F 75% 29.93 in 10.0 mi North - - 0.00 in Rain Light Rain
10:40 AM 60.8 °F 55.4 °F 82% 29.94 in 8.0 mi North - - 0.00 in Rain Rain
10:56 AM 59.9 °F 54.9 °F 83% 29.93 in 10.0 mi North - - 0.00 in Rain Light Rain
11:56 AM 61.0 °F 54.9 °F 80% 29.94 in 10.0 mi North - - 0.00 in   Clear
12:56 PM 63.0 °F 47.8 °F 58% 29.91 in 10.0 mi North - - N/A   Partly Cloudy
1:56 PM 65.8 °F 50.0 °F 57% 29.90 in 10.0 mi North - - N/A   Clear
2:56 PM 68.0 °F 46.9 °F 47% 29.88 in 10.0 mi North - - N/A   Mostly Cloudy
4:56 PM 61.9 °F 50.9 °F 67% 29.89 in 8.0 mi North - - 0.00 in Rain , Thunderstorm Light Thunderstorms and Rain
5:04 PM 60.8 °F 50.0 °F 68% 29.91 in 2.5 mi North - - 0.02 in Rain Rain
5:10 PM 60.8 °F 51.8 °F 72% 29.91 in 3.0 mi North - - 0.03 in Rain , Thunderstorm Light Thunderstorms and Rain
5:35 PM 60.8 °F 50.0 °F 68% 29.92 in 10.0 mi North - - 0.03 in Rain Light Rain
6:31 PM 57.2 °F 55.4 °F 94% 29.94 in 4.0 mi North - - 0.01 in Rain Light Rain
6:37 PM 55.4 °F 55.4 °F 100% 29.94 in 7.0 mi North - - 0.01 in Rain Light Rain
7:02 PM 55.4 °F 53.6 °F 94% 29.95 in 2.5 mi North - - 0.00 in Rain Heavy Rain
7:08 PM 55.4 °F 53.6 °F 94% 29.96 in 3.0 mi North - - 0.00 in Rain Heavy Rain
7:56 PM 55.9 °F 52.9 °F 89% 29.94 in 6.0 mi North - - 0.00 in Rain Light Rain
8:04 PM 55.4 °F 53.6 °F 94% 29.95 in 10.0 mi North - - 0.00 in Rain Light Rain
8:56 PM 55.9 °F 54.0 °F 93% 29.95 in 10.0 mi North - - 0.00 in   Clear
10:56 PM 52.9 °F 52.9 °F 100% 29.98 in 10.0 mi North - - N/A   Clear
11:56 PM 52.0 °F 52.0 °F 100% 29.98 in 7.0 mi North - - N/A   Clear